Content
SEND FEEDBACK

Daily
Averages
Monthly
Summary
United States of America

RAPID CITY, SOUTH DAKOTA


Home > North America > United States > South Dakota
Elevation: 3162 feet     Latitude: 44 03N     Longitude: 103 04W

WEATHER
 
SELECT A DAY
Number of Records: 205,017;   Date Range: 1/1/95 - 12/19/14
 
SHARE

PRINT THIS DATA

[ ← Previous Day ]
WEATHER ALMANAC - JANUARY 26, 2013
[ Next Day → ]
[ °C ]   °F
Weather ElementAverageHighLow
Temperature35.8 °F51.1 °F (2:52 pm)21.9 °F (3:52 am)
Dewpoint22.4 °F25 °F (8:52 am)17.1 °F (3:52 am)
Humidity61.1 %88 % (1:52 am)35 % (2:52 pm)
Barometer29.91 in29.99 in (1:52 am)29.81 in (11:52 pm)
Wind Speed3.4 mph11.5 mph (7:52 am)
Weather ElementAverage
Visibility10 mi
Wind DirectionE (93 °)

Weather ElementTotal
Precipitation---
Heating Degree Days28.5 (Base 65)
Averaged from 23 records on January 26, 2013
WEATHER CONDITIONS BREAKOUT
WIND DIRECTION BREAKOUT
WEATHER BY HOUR - JANUARY 26, 2013
[ °C ]   °F
Local TimeTemperatureDewpointHumidityBarometerVisibilityWind DirectionWind SpeedGust SpeedPrecipitationEventsConditions
1:52 AM23.0 °F19.9 °F88 %29.99 in10.0 miEast (90°)3.5 mphClear
2:52 AM26.1 °F19.9 °F78 %29.96 in10.0 miCalmClear
3:52 AM21.9 °F17.1 °F82 %29.95 in10.0 miCalmClear
4:52 AM25.0 °F19.0 °F78 %29.95 in10.0 miCalmClear
5:52 AM24.1 °F18.0 °F77 %29.96 in10.0 miCalmClear
6:52 AM26.1 °F19.0 °F75 %29.96 in10.0 miCalmClear
7:52 AM33.1 °F24.1 °F70 %29.94 in10.0 miNNW (330°)11.5 mphClear
8:52 AM36.0 °F25.0 °F64 %29.94 in10.0 miNW (310°)4.6 mphClear
9:52 AM43.0 °F25.0 °F49 %29.93 in10.0 miNNW (340°)11.5 mphClear
10:52 AM46.0 °F23.0 °F40 %29.94 in10.0 miNNE (20°)11.5 mphClear
11:52 AM48.0 °F25.0 °F41 %29.93 in10.0 miNorth (350°)5.8 mphClear
12:52 PM50.0 °F25.0 °F38 %29.89 in10.0 miNNE (20°)8.1 mphClear
1:52 PM50.0 °F24.1 °F36 %29.90 in10.0 miCalmClear
2:52 PM51.1 °F24.1 °F35 %29.88 in10.0 miSSE (160°)5.8 mphClear
3:52 PM46.9 °F23.0 °F39 %29.90 in10.0 miSSE (160°)6.9 mphClear
4:52 PM41.0 °F21.9 °F47 %29.90 in10.0 miSSE (160°)5.8 mphClear
5:52 PM35.1 °F21.9 °F59 %29.91 in10.0 miCalmClear
6:52 PM30.9 °F21.9 °F69 %29.91 in10.0 miCalmClear
7:52 PM33.1 °F23.0 °F66 %29.88 in10.0 miCalmClear
8:52 PM37.0 °F24.1 °F59 %29.85 in10.0 miSSW (200°)3.5 mphClear
9:52 PM33.1 °F24.1 °F70 %29.84 in10.0 miCalmClear
10:52 PM33.1 °F24.1 °F70 %29.83 in10.0 miCalmClear
11:52 PM30.0 °F23.0 °F75 %29.81 in10.0 miCalmClear
Hourly data recorded from KRAP, located miles away from Rapid City, South Dakota







STORIES FROM OUR PARTNERS